This is the latest recevied weather packets stored in our database for station/object KE0PRS. If no packets are shown the sender has not sent any weather packets the latest 10 day(s).
| Time | Temp. | Humidity | Pressure | Rain* | Wind** | Luminosity | Snow |
|---|---|---|---|---|---|---|---|
| 1787927301 | 21.11° C | 81% | 1021.8 hPa | 0 mm | - | 154 W/m² | - |
| 1787926997 | 21.11° C | 82% | 1021.6 hPa | 0 mm | - | 70 W/m² | - |
| 1787926696 | 21.11° C | 81% | 1021.5 hPa | 0 mm | - | 63 W/m² | - |
| 1787926395 | 21.11° C | 81% | 1021.6 hPa | 0 mm | - | 67 W/m² | - |
| 1787926090 | 21.11° C | 80% | 1021.6 hPa | 0 mm | - | 68 W/m² | - |
| 1787925789 | 21.11° C | 80% | 1021.7 hPa | 0 mm | - | 71 W/m² | - |
| 1787925498 | 21.11° C | 81% | 1021.8 hPa | 0 mm | - | 72 W/m² | - |
| 1787925183 | 21.11° C | 81% | 1021.8 hPa | 0 mm | - | 64 W/m² | - |
| 1787924882 | 21.11° C | 81% | 1021.7 hPa | 0 mm | - | 62 W/m² | - |
| 1787924577 | 21.11° C | 81% | 1021.5 hPa | 0 mm | - | 67 W/m² | - |
| 1787924272 | 21.11° C | 82% | 1021.7 hPa | 0 mm | - | 95 W/m² | - |
| 1787923968 | 21.11° C | 85% | 1021.5 hPa | 0 mm | - | 106 W/m² | - |
| 1787923667 | 20.56° C | 89% | 1021.5 hPa | 0 mm | - | 132 W/m² | - |
| 1787923362 | 20° C | 90% | 1021.5 hPa | 0 mm | - | 120 W/m² | - |
| 1787923057 | 20° C | 91% | 1021.5 hPa | 0 mm | - | 108 W/m² | - |
| 1787922752 | 19.44° C | 93% | 1021.3 hPa | 0 mm | - | 105 W/m² | - |
| 1787922452 | 19.44° C | 94% | 1021.2 hPa | 0 mm | - | 89 W/m² | - |
| 1787922150 | 18.89° C | 94% | 1021.3 hPa | 0 mm | - | 73 W/m² | - |
| 1787921849 | 18.89° C | 94% | 1021.2 hPa | 0 mm | - | 60 W/m² | - |
| 1787921544 | 18.89° C | 94% | 1021.1 hPa | 0 mm | - | 53 W/m² | - |
| 1787921244 | 18.89° C | 94% | 1021.1 hPa | 0 mm | - | 41 W/m² | - |
| 1787920940 | 18.89° C | 94% | 1020.7 hPa | 0 mm | - | 16 W/m² | - |
| 1787920635 | 18.89° C | 94% | 1020.7 hPa | 0 mm | - | 11 W/m² | - |
| 1787920329 | 18.89° C | 94% | 1020.7 hPa | 0 mm | - | 9 W/m² | - |
| 1787920026 | 18.89° C | 94% | 1020.7 hPa | 0 mm | - | 9 W/m² | - |
* Rain latest hour (hover to see other rain measurements)
** Current wind speed in m/s (hover to see current wind gust speed)